Regional Weather Roundup
Issued by NWS

Home | Current Version | Previous Version | Graphics & Text | Print | Product List | Glossary On
Versions: 1 2 3 4 5 6 7 8 9 10 11 12 13 14 15 16 17 18 19 20 21 22 23 24 25 26 27 28 29 30 31 32 33 34 35 36 37 38 39 40 41 42 43 44 45 46 47 48 49 50
683
ASUS45 KSLC 221410
RWRUT

UTAH REGIONAL WEATHER ROUNDUP
NATIONAL WEATHER SERVICE SALT LAKE CITY UT
800 AM MDT TUE MAY 22 2018

UTZ001>011-023>025-221500-

NORTHERN UTAH

CITY           SKY/WX    TMP DP  RH WIND       PRES   REMARKS
BRIGHAM CITY   MOSUNNY   58  43  57 NE3       29.92R
DUGWAY         PTSUNNY   55  44  64 E2        29.93R
HILL AFB       PTSUNNY   55  42  62 E12       29.92R
LOGAN          MOSUNNY   53  44  71 S7        29.95R
OGDEN          MOSUNNY   57  42  57 S6        29.91R
SALT LAKE CITY PTSUNNY   59  48  67 SE3       29.90R
TOOELE VALLEY  PTSUNNY   54  50  87 CALM      29.92R
WENDOVER       CLOUDY    61  47  59 SE5       29.92R
HEBER CITY     PTSUNNY   45  41  87 CALM      29.98R
WEST JORDAN    PTSUNNY   56  47  71 CALM      29.93R

$$

UTZ011>015-024>027-221500-

CENTRAL/NORTHEAST UTAH

CITY           SKY/WX    TMP DP  RH WIND       PRES   REMARKS
PROVO AIRPORT  PTSUNNY   55  44  66 CALM      29.93R
MOAB/CANYONLAN CLOUDY    70  38  31 SE16      29.86R
DELTA          CLOUDY    54  45  71 NE7       29.92R
PRICE          CLOUDY    59  32  36 NE7       29.97R
ROOSEVELT      CLOUDY    61  32  33 S5        29.96R
VERNAL         PTSUNNY   57  39  51 W5        29.94R

$$

UTZ013>016-019>022-027-221500-

SOUTHERN UTAH

CITY           SKY/WX    TMP DP  RH WIND       PRES   REMARKS
BRYCE CANYON   CLOUDY    44  27  51 W3        30.05R
CEDAR CITY     CLOUDY    56  35  45 SW22G31   29.96R
MILFORD        PTSUNNY   51  35  54 S6        29.92R
ST GEORGE      CLOUDY    68  40  35 SE22G31   29.87R
HANKSVILLE     CLOUDY    63  32  31 CALM      29.91R
BLANDING         N/A     58  40  50 SE7       30.08R

$$

REGIONAL REPORTS     COLORADO/ARIZONA

CITY           SKY/WX    TMP DP  RH WIND       PRES   REMARKS
CRAIG, CO      MOSUNNY   49  41  74 VRB3      30.01R
GRAND JUNCTION MOSUNNY   65  35  33 E20       29.93R
RIFLE, CO      SUNNY     55  38  52 CALM      29.99R
MONTROSE, CO   MOSUNNY   52  31  44 S6        30.02R
CORTEZ, CO     PTSUNNY   61  42  49 SE8G20    30.03S
COLORADO CITY  RAIN      52  45  76 SW13G22   30.02R
PAGE, AZ       PTSUNNY   70  24  17 SE16      29.88R
GRAND CANYON   MOSUNNY   52  24  33 SE3       30.02R
KINGMAN, AZ    PTSUNNY   64  38  38 CALM      29.86R
FLAGSTAFF, AZ  SUNNY     47  26  44 CALM      30.04R

$$

REGIONAL REPORTS    NEVADA/IDAHO/WYOMING

CITY           SKY/WX    TMP DP  RH WIND       PRES   REMARKS
LAS VEGAS, NV  MOSUNNY   69  39  33 SW3       29.79R
ELY, NY        PTSUNNY   40  38  93 S6        30.00R
ELKO, NV       CLOUDY    49  45  86 SW3       29.97R
POCATELLO, ID  CLOUDY    57  48  72 SW5       29.97R
BURLEY, ID     CLOUDY    56  49  77 CALM      29.95R
FORT BRIDGER,    N/A     50  40  68 CALM      30.08R
EVANSTON, WY   CLOUDY    44  41  89 CALM      30.06R
ROCK SPRINGS,  CLOUDY    52  40  63 E10       30.03R
KEMMERER, WY   PTSUNNY   54  36  50 N7        30.05S

$$




USA.gov is the U.S. government's official web portal to all federal, state and local government web resources and services.